{"data":{"norad_id":55662,"epoch":"2026-05-24T22:25:13.863072Z","epoch_age_seconds":70889,"freshness":"FRESH","line1":"1 55662U 23021AL  26144.93418823 -.00000242  00000+0 -12809-4 0  9990","line2":"2 55662  69.9994 332.2920 0002449 267.1946  92.8933 14.97525564180705","mean_motion":14.97525564,"eccentricity":0.0002449,"inclination_deg":69.9994,"raan_deg":332.292,"arg_perigee_deg":267.1946,"mean_anomaly_deg":92.8933,"bstar":-1.2809e-5,"rev_number":18070,"period_min":96.158625576558,"perigee_km":572.84194470291,"apogee_km":576.24736817824,"semimajor_km":6952.6816564406,"source":"CELESTRAK","updated_at":"2026-05-25T13:38:17.874131Z"}}